Regional Weather Roundup
Issued by NWS

Home | Current Version | Previous Version | Graphics & Text | Print | Product List | Glossary On
Versions: 1 2 3 4 5 6 7 8 9 10 11 12 13 14 15 16 17 18 19 20 21 22 23 24 25 26 27 28 29 30 31 32 33 34 35 36 37 38 39 40 41 42 43 44 45 46 47 48 49 50
000
ASUS45 KCYS 201110
RWRWY

WYOMING REGIONAL WEATHER ROUNDUP
NATIONAL WEATHER SERVICE CHEYENNE WY
400 AM MST TUE FEB 20 2018

NOTE:  "FAIR" INDICATES FEW OR NO CLOUDS BELOW 12,000 FEET
WITH NO SIGNIFICANT WEATHER AND/OR OBSTRUCTIONS TO VISIBILITY.

WYZ001-201200-
YELLOWSTONE NATIONAL PARK

CITY           SKY/WX    TMP DP  RH WIND       PRES   REMARKS
LK YELLOWSTONE   N/A    -26 -33  69 CALM      29.68R
W YELLOWSTONE  NOT AVBL

$$
WYZ002>013-054>058-071-098>099-201200-
NORTHERN WYOMING

CITY           SKY/WX    TMP DP  RH WIND       PRES   REMARKS
JACKSON        LGT SNOW   0  -5  79 NE6       29.75R WCI -12
CODY           FAIR     -16 -22  74 CALM      29.88S
GREYBULL       FAIR     -15 -18  86 E5        30.02R WCI -27
WORLAND        FAIR     -14 -18  82 S5        29.97S WCI -26
SHERIDAN       FAIR     -14 -18  82 SW5       29.95R WCI -26
BUFFALO        FAIR      -8 -14  74 CALM      29.86R
GILLETTE       FAIR     -10 -15  78 W13       29.90F WCI -30
HULETT         FAIR      -6 -11  77 MISG      29.93R
NEWCASTLE      FAIR      -6 -11  77 NW10      29.91R WCI -23

$$
WYZ014>020-022>026-101>103-201200-
CENTRAL WYOMING

CITY           SKY/WX    TMP DP  RH WIND       PRES   REMARKS
BIG PINEY      CLOUDY    -2  -6  83 CALM      29.73R
PINEDALE       FAIR     -15 -18  84 CALM      29.74R
DUBOIS         NOT AVBL
LANDER         FAIR      -8 -13  78 W8        29.82S WCI -24
RIVERTON       FAIR      -9 -16  71 NE5       29.84S WCI -20
CASPER         CLOUDY   -13 -17  82 SW15      29.84S WCI -36
DOUGLAS        MOCLDY   -13 -20  71 NW7       29.89R WCI -29

$$
WYZ021-027>030-104>119-201200-
SOUTHERN WYOMING

CITY           SKY/WX    TMP DP  RH WIND       PRES   REMARKS
EVANSTON       MOCLDY     5   1  83 W10       29.72R WCI -10
FORT BRIDGER   CLOUDY    -8 -11  84 NW5       29.76R WCI -19
ROCK SPRINGS   CLOUDY    -3 -10  72 S3        29.75R
DIXON          LGT SNOW  -2  -7  78 CALM      29.82R
RAWLINS        CLOUDY    -7 -13  75 CALM      29.74R
SARATOGA       CLOUDY    -9 -17  70 MISG      29.73R
LARAMIE        FAIR     -13 -16  86 NE5       29.66R WCI -25
CHEYENNE       FAIR      -6 -11  79 NW3       29.73S
TORRINGTON     FAIR      -5 -10  79 NW10      29.93R WCI -23
PINE BLUFFS    FAIR      -8 -13  77 MISG      29.84S

$$



USA.gov is the U.S. government's official web portal to all federal, state and local government web resources and services.